Theta_e
317 323 325 321 322 326 323 317 314 319 315 308 310 311 309 309 308 307 307 306 305 307 309 308 307 308 307 307 308 303 297 295 295 295 295 294 293 293 293 292 292 292 291 290 289 288 288 287 288 288 289 289 290 290 289 289 289 288 288 288 288 288 287 287 287 287 287 287 287 286 286 286 286 286 286 286 287 287 287 286 286 286 285 285 284 284
322 322 323 325 323 319 319 315 310 310 309 307 309 310 309 309 308 307 306 306 305 307 310 310 309 309 308 307 307 305 299 297 296 296 296 295 294 293 293 292 292 292 291 290 289 288 288 287 287 288 288 289 289 289 289 288 288 288 288 288 288 288 287 287 287 287 287 287 286 286 285 285 285 285 285 285 286 286 285 285 285 285 285 284 283 283
326 324 325 324 317 311 310 310 308 308 308 308 308 308 310 309 310 309 308 308 307 306 310 311 309 307 307 307 306 305 302 299 298 297 297 296 295 294 293 292 292 292 291 291 290 288 287 287 287 288 288 289 289 288 288 288 288 288 288 288 287 287 287 287 287 287 287 286 286 285 285 285 285 285 285 285 285 285 284 284 284 284 284 283 283 283
323 328 327 316 309 308 309 308 308 307 308 309 308 309 312 310 311 312 311 311 309 307 308 308 306 305 305 305 306 305 302 300 299 298 298 297 296 295 294 293 292 291 291 290 290 288 287 287 287 287 288 288 288 288 288 288 288 288 288 288 287 287 287 287 287 287 286 286 286 286 285 285 285 285 284 284 284 284 283 283 283 283 283 283 282 282
320 320 313 309 309 309 311 310 309 308 310 316 313 309 312 311 310 311 310 309 309 311 308 306 308 310 307 305 306 305 301 299 299 298 297 297 296 295 294 293 292 291 290 290 290 289 286 286 287 287 287 288 288 287 288 288 288 288 288 287 287 287 287 287 287 286 286 286 286 286 286 285 285 285 284 284 284 283 283 284 284 284 283 283 282 282
320 311 306 310 310 309 311 312 314 311 312 320 319 311 311 311 310 310 310 308 311 315 309 305 315 318 311 307 306 306 303 301 299 298 297 296 295 295 294 293 292 291 290 290 290 288 286 286 287 287 287 287 287 287 287 288 288 288 288 287 287 287 287 287 286 286 286 286 285 285 285 284 284 283 283 283 283 283 282 283 283 283 283 282 282 281
314 307 309 315 313 312 311 313 318 314 311 317 317 313 312 310 310 310 310 309 314 316 307 305 314 315 310 310 310 309 308 305 301 298 297 296 295 294 293 293 292 290 290 290 289 288 286 286 286 286 287 287 287 287 287 287 287 287 288 287 287 287 287 286 286 286 286 285 285 284 284 283 283 282 282 282 282 282 282 282 282 282 282 282 281 281
311 308 313 314 314 315 313 316 318 311 313 319 314 313 312 309 310 309 306 307 311 310 305 306 308 308 308 309 309 308 308 307 303 301 298 295 295 294 293 293 291 290 290 290 290 289 286 285 286 286 286 287 286 287 287 287 287 287 287 287 287 286 286 286 286 285 285 285 284 284 283 283 282 282 282 282 281 281 281 281 282 282 282 281 281 280
311 312 316 314 314 315 316 323 319 310 315 318 310 308 307 305 307 306 304 307 307 305 307 308 305 307 311 309 307 303 304 307 305 304 302 298 295 294 293 292 291 290 289 289 290 289 285 285 286 286 286 286 286 286 286 287 287 287 287 287 286 286 286 286 285 285 285 284 284 283 283 282 282 282 281 281 281 281 281 281 281 281 281 281 280 280
311 310 314 316 315 315 318 320 314 311 313 311 307 308 310 311 310 306 305 307 308 309 312 310 306 310 316 314 310 304 305 308 307 304 303 300 297 294 293 292 290 289 289 289 289 286 284 285 286 285 286 286 286 286 286 286 287 286 286 287 286 286 286 285 285 284 284 284 283 283 282 282 282 281 281 281 280 280 280 280 280 280 280 280 280 279
311 305 307 313 313 315 317 311 305 308 309 307 309 313 315 316 312 310 308 309 312 315 316 312 307 309 315 315 312 310 310 312 311 309 306 302 298 294 293 291 289 289 288 288 288 285 284 285 285 285 285 286 286 286 286 286 286 286 286 286 286 286 285 284 284 284 283 283 283 282 282 281 281 281 280 280 280 280 280 280 279 279 279 279 279 279
312 307 310 312 310 310 313 310 305 307 308 309 314 316 316 318 317 317 314 312 317 320 318 311 305 307 312 313 310 311 310 308 309 311 310 307 300 294 293 291 289 288 287 287 288 287 284 284 284 284 285 286 286 286 286 286 285 285 285 285 285 285 284 284 283 283 283 282 282 281 281 281 280 280 280 279 279 279 279 279 279 279 279 279 278 278
316 313 312 310 307 308 314 313 308 309 310 310 313 317 319 321 324 324 318 316 320 320 312 304 305 308 309 310 309 309 309 307 306 305 306 305 300 295 293 291 289 287 287 287 287 287 286 285 283 284 285 286 286 286 286 285 285 285 285 284 284 284 284 283 282 282 282 282 281 281 280 280 280 279 279 279 279 279 279 278 278 278 278 278 278 277
321 318 311 309 309 309 312 312 312 315 312 308 311 319 323 323 324 323 320 319 319 318 308 301 306 311 310 311 310 307 309 306 302 299 299 299 299 297 293 290 288 286 286 286 285 287 287 284 283 284 285 285 285 285 285 284 284 284 284 283 283 283 283 282 282 282 281 281 281 280 280 279 279 279 278 278 278 278 278 278 278 278 278 277 277 277
321 320 315 313 313 310 308 310 317 321 313 307 311 317 321 324 325 323 323 322 317 317 310 302 308 315 313 312 308 305 303 299 296 294 294 296 297 296 292 289 287 286 286 286 285 287 286 283 283 284 285 285 285 284 284 284 284 283 283 283 282 282 282 282 281 281 280 280 280 279 279 278 278 278 278 278 278 278 278 277 277 277 277 277 277 277
316 319 317 309 307 307 307 308 312 318 314 308 309 313 317 321 323 320 320 319 313 313 311 307 310 313 310 307 304 300 297 294 294 293 292 295 294 293 290 288 286 286 286 285 285 287 285 282 283 284 284 284 284 284 283 283 283 283 282 282 282 281 281 281 281 280 280 279 279 278 278 278 277 277 277 277 277 277 277 277 277 277 277 276 276 276
315 319 313 304 305 304 302 304 306 313 316 309 308 313 313 311 316 318 317 313 309 310 313 311 310 309 309 308 302 299 298 296 296 293 292 293 291 290 289 287 286 286 285 285 285 286 285 282 283 284 284 284 284 283 283 283 283 282 281 281 281 281 281 280 280 279 279 278 278 277 277 277 277 276 276 276 276 276 276 276 276 276 276 276 276 276
315 317 311 305 309 303 296 300 303 304 309 311 313 313 307 305 311 315 315 313 309 311 314 312 310 310 313 311 302 299 300 300 298 293 290 290 289 289 289 286 286 285 284 285 285 285 284 281 282 284 284 284 283 283 283 283 282 281 281 281 280 280 280 279 279 278 278 277 277 277 277 276 276 276 275 275 275 275 276 276 276 276 276 276 276 276
313 313 313 304 306 303 298 303 308 302 301 308 311 306 306 311 312 310 311 314 313 313 314 314 313 312 314 315 311 307 305 305 302 294 289 290 289 288 288 286 285 285 285 285 285 285 284 282 282 283 284 284 283 283 283 282 281 281 281 280 280 279 279 278 278 277 277 277 276 276 276 276 275 275 275 275 275 275 275 275 275 275 275 276 276 276
312 312 316 303 300 303 302 306 314 308 300 301 302 301 304 310 312 311 310 312 316 315 314 316 315 314 316 319 318 314 309 309 305 296 291 291 290 288 287 286 285 285 285 284 284 285 285 282 282 284 284 283 283 282 282 281 281 280 280 279 279 278 278 278 277 277 276 276 276 275 275 275 275 274 274 274 274 274 274 274 274 275 275 275 276 276
311 312 316 306 300 304 306 307 312 312 305 303 303 303 303 303 307 311 307 307 313 314 313 314 314 314 314 315 316 314 310 309 306 299 293 290 289 288 287 286 286 285 284 284 284 285 285 282 282 284 283 282 282 281 281 280 280 279 279 278 278 277 277 277 277 276 276 275 275 275 274 274 274 274 273 273 273 273 273 274 274 274 275 275 275 275
314 314 316 311 304 306 310 307 305 308 308 306 306 306 305 304 306 310 308 307 308 310 313 314 314 314 310 308 310 311 310 308 303 298 295 291 289 288 287 286 286 284 284 284 284 285 285 282 281 283 282 282 281 281 280 280 279 279 278 278 277 277 277 276 276 275 275 274 274 274 274 273 273 273 272 272 272 272 273 273 273 274 274 274 274 275
315 315 314 314 311 307 306 303 300 302 302 303 305 306 306 305 306 310 311 310 307 307 309 311 312 313 308 306 306 307 308 304 297 295 296 293 290 288 287 286 285 284 284 284 284 285 283 281 281 282 282 281 281 280 280 279 278 278 278 277 277 276 276 275 275 274 274 274 273 273 273 272 272 272 272 272 272 272 272 272 272 273 273 273 274 274
312 314 312 315 316 311 305 302 301 300 299 301 304 304 304 305 306 308 310 312 312 309 307 309 311 311 307 304 302 301 300 297 293 294 295 293 290 288 286 286 285 284 284 284 285 285 282 280 281 281 280 280 280 279 279 278 278 278 277 276 276 275 275 275 274 273 273 273 273 272 272 272 271 271 271 271 271 271 271 272 272 272 272 273 273 273
312 315 314 313 316 316 311 307 306 303 300 301 304 303 303 304 305 307 307 308 310 309 308 309 311 312 307 302 299 299 298 296 294 293 292 291 290 287 286 285 284 284 285 285 285 285 284 283 281 279 280 280 279 279 278 278 278 277 276 276 275 274 274 274 273 273 272 272 272 271 271 271 271 271 271 271 271 271 271 271 271 271 272 272 272 273
313 316 314 312 313 315 313 311 314 310 302 300 303 302 302 303 304 306 307 307 308 309 309 309 311 312 308 304 302 301 301 298 295 293 291 290 289 287 286 285 284 284 285 285 285 285 284 284 282 279 279 279 279 278 278 278 277 276 275 275 274 273 273 273 272 272 271 271 271 271 271 270 270 270 270 270 270 270 270 270 270 271 271 271 271 272
318 317 312 312 313 312 310 310 313 312 306 305 305 302 301 302 303 305 307 308 309 308 309 309 309 310 309 308 306 305 304 300 296 295 293 289 288 287 285 285 284 284 284 284 284 284 284 284 282 279 278 279 278 278 278 277 276 275 274 274 273 273 272 272 271 271 271 270 270 270 270 270 270 270 270 270 270 270 270 270 270 270 270 270 270 270
318 315 310 311 311 311 311 310 311 312 310 309 308 304 302 301 302 305 306 307 307 308 309 309 308 310 310 309 308 308 308 303 298 295 293 290 288 287 286 285 285 284 284 284 284 284 284 284 283 280 278 278 278 277 277 276 275 274 273 273 272 272 271 271 270 270 270 270 270 270 270 270 269 269 269 269 269 269 269 269 269 268 268 268 268 268
314 313 312 312 311 310 310 310 311 312 310 309 310 308 304 300 301 304 305 305 307 308 309 309 309 310 310 309 309 309 309 307 302 296 293 291 288 287 286 286 285 285 285 284 284 284 284 284 283 280 278 277 277 277 276 275 274 273 273 272 271 271 270 270 270 269 269 269 269 269 269 269 269 269 269 269 269 269 268 268 267 267 267 267 266 266
311 312 312 311 311 311 310 309 310 310 309 309 309 309 307 303 300 302 303 304 305 306 307 307 308 308 308 308 308 307 308 308 303 296 292 290 288 287 286 285 285 285 285 284 284 283 283 283 282 279 277 277 277 276 275 274 273 272 271 271 270 270 270 269 269 269 269 269 269 269 269 269 269 269 269 268 268 267 267 266 266 265 265 265 265 265
308 312 313 312 312 312 311 310 311 309 309 309 309 309 309 306 303 302 302 302 303 304 304 304 306 306 306 306 306 306 307 305 301 297 293 290 288 287 286 285 285 285 285 284 284 283 283 282 281 279 277 276 276 275 274 273 272 271 270 270 269 269 269 269 268 268 268 268 268 268 268 268 268 268 268 267 266 266 265 265 264 264 264 264 264 264
307 311 314 313 312 313 312 312 311 308 308 309 309 309 308 308 307 306 305 304 304 304 304 305 305 305 305 305 306 306 305 303 301 298 294 290 288 287 287 286 285 286 285 284 284 283 283 282 281 279 277 276 275 274 273 272 271 270 269 269 269 269 269 268 268 268 268 268 268 268 268 268 267 267 266 266 265 264 264 263 263 263 263 263 263 264
308 310 312 312 312 312 310 309 308 308 310 311 311 311 309 308 308 308 308 307 305 305 306 307 307 306 306 307 307 307 304 302 300 298 294 291 288 287 286 286 286 286 285 284 284 284 283 281 279 278 276 275 274 273 272 271 270 269 268 268 268 268 268 267 267 267 267 267 267 267 267 267 266 265 265 264 263 263 262 262 262 262 263 263 263 264
307 309 310 311 313 312 307 305 307 309 312 313 312 313 314 311 309 308 308 308 307 307 306 307 308 307 307 308 308 307 305 301 298 295 293 292 289 287 286 286 286 285 285 284 284 284 282 280 277 276 276 274 273 272 270 269 268 268 268 268 268 268 267 267 267 267 267 267 267 267 266 265 264 264 263 262 262 262 261 262 262 262 263 263 263 264
307 307 309 311 313 309 304 305 310 312 313 312 310 310 312 312 310 309 308 308 307 307 307 307 307 307 307 307 306 306 305 301 296 294 292 291 290 288 287 286 286 285 285 284 284 283 281 278 276 275 274 273 272 270 269 268 267 267 268 268 267 267 266 266 266 266 266 266 266 265 265 264 263 262 262 261 261 261 261 261 262 262 263 263 264 265
307 306 309 311 310 307 306 308 312 313 311 311 310 306 305 307 306 305 307 307 305 305 306 306 306 306 306 306 305 304 302 297 294 292 291 289 289 289 288 287 286 285 284 284 283 282 279 277 275 274 273 272 270 268 268 267 267 267 268 267 266 266 266 266 266 266 266 265 265 264 263 262 261 261 261 261 261 261 261 261 262 262 263 264 265 265
308 308 308 309 310 310 311 311 311 312 311 312 311 307 304 305 305 305 308 309 306 306 305 304 304 304 304 304 303 300 297 294 294 293 291 288 288 288 288 286 286 285 284 283 281 279 277 275 274 273 271 270 268 267 267 266 266 267 267 266 266 265 266 266 265 265 264 264 263 263 261 261 260 260 260 260 260 261 261 261 262 263 264 264 264 264
307 309 309 310 311 311 312 312 312 314 313 312 311 308 306 305 304 304 306 307 306 305 304 304 304 303 302 303 300 296 294 296 297 296 293 289 287 287 287 286 285 284 282 279 277 275 274 274 272 271 269 268 267 267 266 266 266 267 266 265 265 265 265 265 265 264 263 263 262 261 260 260 259 260 260 260 260 261 261 262 262 263 264 264 264 264
304 307 308 310 311 312 312 313 314 314 315 312 309 304 302 303 303 303 305 307 307 305 305 304 303 302 303 301 296 294 297 299 299 298 295 289 286 286 286 285 283 281 278 276 275 273 272 272 271 269 268 267 267 266 265 266 266 265 264 264 264 264 264 264 263 263 262 261 260 260 259 259 259 259 260 260 260 261 261 262 263 263 263 263 263 264
303 305 307 308 311 312 312 313 313 313 313 311 305 298 297 300 304 307 309 309 308 308 306 304 302 302 301 298 293 294 298 299 299 298 293 287 285 285 284 283 281 278 275 274 273 272 271 270 269 268 267 267 266 265 265 265 265 264 264 263 263 263 263 263 262 261 260 260 259 259 259 259 259 259 260 260 261 261 262 262 263 263 263 263 263 263
303 305 306 307 310 311 312 314 313 312 313 307 300 296 297 301 306 310 311 310 309 309 305 302 301 301 299 295 293 295 297 297 298 295 288 285 285 284 282 280 278 276 274 272 272 271 270 269 268 267 267 266 265 265 265 264 264 263 263 263 263 263 262 262 261 260 259 259 259 258 259 259 259 259 260 260 261 261 262 262 262 263 263 263 263 263
305 305 305 307 309 309 311 313 311 313 312 303 296 295 299 304 307 309 308 307 309 309 303 299 299 299 296 294 293 294 295 295 294 290 285 284 284 282 279 277 275 274 273 271 271 270 269 268 267 267 266 265 264 264 264 264 263 262 262 262 262 262 262 262 260 259 258 258 258 258 259 259 259 260 260 261 261 262 262 262 262 262 263 263 263 263
308 307 305 307 308 308 309 310 311 313 308 299 296 296 299 305 309 308 306 305 307 308 304 298 296 296 295 293 292 293 294 293 290 287 284 284 283 280 277 276 274 273 272 271 270 269 268 267 267 266 265 264 264 263 263 263 263 261 261 262 261 262 263 262 260 258 258 258 258 258 259 259 259 260 260 261 261 261 261 262 262 262 262 262 263 263
309 308 307 307 308 309 309 309 311 311 303 297 299 301 300 302 307 308 307 304 302 301 300 297 295 294 294 294 292 291 291 290 287 285 284 283 281 278 276 275 274 272 271 270 269 268 267 266 265 265 264 263 263 263 263 263 262 261 261 261 261 262 263 262 260 258 258 258 258 258 258 259 259 260 260 261 261 261 261 262 262 262 262 262 263 263
311 310 311 310 308 309 310 309 309 307 300 297 302 305 302 301 303 306 307 305 301 297 295 296 296 293 292 292 291 290 289 288 286 284 283 282 279 277 276 274 272 271 270 269 268 267 266 265 265 264 263 263 263 262 262 262 262 261 261 261 262 262 262 261 260 258 258 257 258 258 258 259 259 260 260 260 261 261 261 261 262 262 262 263 263 263
312 310 311 311 309 308 308 308 308 306 301 298 300 303 303 301 301 302 303 303 300 296 294 295 295 292 291 292 291 289 288 287 285 284 283 281 278 277 275 273 272 270 269 267 267 266 265 264 264 264 263 262 262 261 261 262 262 261 260 261 262 262 261 260 259 258 257 257 257 258 258 258 259 260 260 260 260 260 261 261 262 262 263 263 264 264
311 309 308 310 310 310 310 310 309 307 304 301 298 299 301 300 299 299 300 300 298 296 294 294 294 292 291 291 291 289 288 286 284 284 282 280 278 276 274 272 270 269 267 267 266 265 264 264 263 263 263 262 261 261 261 262 261 261 261 262 262 262 261 260 258 257 257 257 257 257 258 258 259 259 259 260 260 260 261 261 262 262 263 264 264 265
311 309 307 308 309 310 311 313 311 309 307 304 300 298 299 299 297 297 297 297 297 295 293 293 293 291 291 290 290 289 287 285 284 284 281 279 278 275 273 271 270 268 267 266 265 264 264 263 262 262 262 262 261 261 261 262 261 261 261 262 262 262 261 260 258 257 256 257 257 257 258 258 258 259 259 259 260 260 260 261 262 263 263 264 264 266
311 309 308 308 308 309 311 312 311 309 308 306 302 299 299 299 298 297 295 295 296 295 293 292 291 291 290 290 290 289 287 285 284 283 281 279 277 275 273 271 269 267 266 265 264 264 264 264 263 262 261 261 260 261 261 262 261 261 261 262 262 261 261 260 258 257 256 256 256 257 258 258 258 258 258 259 259 260 260 261 262 263 264 264 265 267
310 310 310 309 309 309 310 310 310 310 310 309 305 302 300 299 299 297 295 294 295 295 293 292 291 290 290 290 290 289 288 286 284 283 281 279 276 274 272 270 268 266 265 264 263 263 264 264 263 262 261 260 260 261 262 261 261 260 261 261 261 260 260 259 257 256 256 256 256 257 257 258 258 258 258 258 259 260 260 260 261 262 264 265 265 266
311 313 311 310 310 311 311 310 310 311 310 310 309 304 300 298 298 297 295 295 295 294 292 292 292 290 289 289 289 289 288 286 283 282 280 278 276 273 270 268 267 266 264 263 262 262 262 262 262 261 260 260 260 261 261 261 260 260 260 260 260 260 259 257 256 255 255 255 256 256 257 257 257 257 258 258 259 259 259 260 260 261 263 264 265 266
Wind_Speed
4 3 2 5 6 7 7 6 6 5 5 3 2 3 5 5 7 8 4 3 2 2 8 8 9 13 16 16 11 8 9 10 12 11 10 9 10 10 11 10 10 9 8 12 17 14 12 10 7 7 8 7 6 4 2 2 3 4 6 9 11 13 15 16 18 20 23 25 24 24 24 24 25 24 24 26 27 27 27 29 31 32 33 33 33 34
5 2 5 8 9 7 6 6 5 4 4 2 3 4 5 5 8 9 4 4 0 2 6 5 7 13 14 16 12 6 9 13 15 15 15 14 12 11 12 12 10 7 6 9 13 13 13 10 8 7 8 8 7 4 1 1 2 4 6 8 10 12 14 17 18 21 22 22 21 20 20 21 21 21 21 23 24 23 24 27 29 30 32 33 34 35
4 3 9 8 5 4 4 5 6 3 3 2 2 2 4 4 4 8 4 4 2 2 6 7 7 12 13 16 15 9 12 13 14 17 16 14 14 13 13 12 11 9 7 8 10 12 13 11 8 8 8 8 7 4 1 1 3 5 6 8 10 12 15 17 19 20 21 21 20 19 20 20 20 20 20 20 21 21 23 25 26 27 30 33 35 37
2 6 7 3 7 8 4 3 5 2 1 3 3 2 5 4 1 5 4 5 3 2 6 9 11 12 10 15 18 11 10 9 10 13 13 11 13 14 13 11 12 13 11 9 9 10 12 11 8 8 9 8 6 4 2 2 4 6 7 9 11 13 16 18 19 19 20 20 20 20 21 21 20 20 21 20 19 19 22 25 26 28 31 34 36 38
6 6 3 6 6 7 4 1 4 3 3 4 5 6 6 6 5 6 3 5 5 3 4 8 11 9 7 12 15 5 2 7 6 8 10 11 11 9 9 10 11 12 11 10 9 8 10 11 9 9 9 8 6 4 2 2 5 7 8 10 12 14 16 17 18 19 20 21 22 23 24 24 23 23 24 23 23 24 27 30 32 34 35 35 36 37
7 4 4 6 3 4 5 3 4 7 3 4 5 9 10 8 8 6 5 6 5 4 4 6 7 7 2 5 12 5 3 8 5 7 13 12 10 8 9 11 10 9 9 8 9 9 10 11 10 9 9 9 6 4 3 3 6 8 9 10 12 15 16 17 18 18 20 20 22 23 23 23 22 22 22 23 26 29 30 31 32 34 35 36 37 38
3 1 3 6 5 4 4 5 6 7 4 3 4 7 7 5 4 4 4 4 2 3 2 4 2 9 3 3 10 8 6 10 6 9 13 11 9 10 11 10 10 10 8 6 6 8 10 11 11 10 11 9 6 4 3 4 6 8 10 11 13 15 17 17 18 18 19 20 21 21 20 20 19 19 21 22 24 27 29 30 32 34 34 35 37 39
3 2 4 4 5 5 4 5 6 9 7 3 4 5 5 2 2 2 2 0 3 3 3 3 4 9 9 5 8 5 5 11 11 12 14 10 11 13 12 10 10 11 9 7 7 7 9 12 13 12 11 9 5 5 5 6 8 9 10 12 14 16 17 17 18 18 19 20 21 21 20 20 20 20 23 24 25 26 28 31 34 36 37 37 36 37
3 5 5 5 4 4 6 6 8 11 5 5 4 5 5 3 2 2 2 2 2 3 5 4 7 5 10 5 2 4 3 11 14 16 15 12 14 14 11 10 10 10 9 9 9 8 10 13 14 12 10 8 6 6 8 8 9 11 11 12 15 17 17 17 17 18 19 19 20 21 20 21 22 22 24 25 27 28 28 30 34 36 38 39 38 38
0 4 7 8 5 6 5 3 7 10 5 3 5 5 4 4 3 4 2 1 2 3 9 6 8 4 9 4 2 2 3 9 12 14 13 11 12 12 10 11 10 9 8 8 8 9 12 14 12 9 8 8 7 8 9 10 11 12 11 13 17 19 17 17 17 18 19 20 20 21 21 22 24 24 25 26 28 29 29 31 34 35 37 38 39 39
3 2 2 4 4 6 4 2 1 4 3 3 6 4 5 4 4 4 2 3 3 5 9 7 12 8 7 3 5 3 5 7 8 9 8 8 9 10 10 11 11 9 8 8 7 8 12 13 10 8 8 7 7 9 10 10 12 12 12 14 19 20 17 17 17 18 19 20 20 21 21 22 24 25 25 26 28 29 30 32 33 34 35 36 38 39
5 1 2 2 2 4 6 5 2 3 3 4 4 4 4 4 3 4 4 4 1 6 6 3 8 9 8 6 4 5 5 5 7 8 9 9 8 9 10 10 10 9 8 8 7 7 9 9 9 9 8 7 8 9 10 11 12 12 12 15 19 20 18 17 17 18 19 20 20 20 21 22 23 24 24 25 27 29 29 31 33 34 35 36 37 38
3 4 3 3 1 4 5 4 2 5 4 4 4 4 3 4 4 3 3 0 3 7 3 2 3 5 12 10 8 10 11 9 8 8 9 9 6 8 9 9 8 8 8 8 7 6 6 6 9 10 8 8 9 9 10 12 12 12 13 16 19 20 19 17 18 18 19 20 20 21 21 22 23 23 24 25 27 28 28 30 32 33 34 35 37 38
4 4 1 0 3 3 7 5 2 2 1 4 4 4 3 1 1 4 4 2 5 6 3 4 3 5 9 8 10 15 13 10 6 6 9 8 6 9 10 9 8 8 9 8 7 7 6 7 10 9 8 9 10 11 11 12 12 12 13 17 19 20 19 18 18 19 19 20 21 22 22 22 23 24 25 25 27 28 29 29 31 32 33 35 37 37
3 6 2 5 2 3 8 6 4 5 3 3 4 4 4 5 3 4 4 4 6 7 4 3 3 4 5 2 6 9 7 4 3 5 6 5 6 6 7 8 8 9 8 7 7 7 6 9 11 10 10 11 12 12 12 12 11 11 14 17 18 19 19 18 19 19 20 21 22 22 22 23 23 23 25 25 26 28 29 30 31 33 34 35 36 37
3 7 5 2 1 3 5 2 3 6 3 1 2 4 2 4 5 3 3 4 1 6 6 3 4 6 4 3 5 2 5 4 3 5 3 3 3 5 6 8 9 9 8 7 7 7 7 10 12 11 12 13 12 12 12 11 10 11 15 16 17 18 18 19 19 19 20 21 22 23 23 23 23 23 25 26 27 28 30 31 32 34 34 34 35 36
1 6 4 2 2 1 1 3 0 2 3 2 2 3 4 4 5 2 4 2 4 3 6 2 6 9 5 4 4 1 4 6 5 4 2 3 3 6 7 8 9 9 8 7 7 7 7 10 12 14 14 13 12 11 11 10 9 11 14 15 16 17 18 19 19 20 21 22 23 23 23 23 24 24 26 27 29 30 30 31 31 33 35 35 35 36
3 5 3 2 1 1 1 2 2 2 3 5 3 5 4 2 4 3 1 3 3 3 6 3 9 14 10 6 2 1 5 9 8 5 3 3 5 7 8 8 9 9 8 7 7 7 7 9 12 14 14 12 11 10 10 9 9 11 12 13 15 17 18 19 20 20 21 22 23 24 24 25 25 26 27 28 29 30 31 31 31 32 34 35 35 35
2 3 4 1 3 3 3 1 1 3 3 5 4 3 2 2 1 2 2 2 1 3 7 6 8 14 12 5 2 3 8 10 9 6 5 7 9 10 9 9 9 8 7 7 7 6 6 8 12 14 13 11 9 8 8 9 10 11 11 12 14 16 18 19 20 21 22 23 23 24 25 26 26 27 28 28 29 30 31 32 32 32 33 34 34 33
3 3 4 1 2 2 3 1 4 2 2 3 0 1 1 2 3 3 3 3 3 3 7 7 9 13 9 5 5 8 9 10 9 8 8 11 12 11 9 9 10 10 9 8 7 7 6 9 13 14 12 10 8 7 8 9 10 11 12 13 14 16 18 19 20 22 23 24 24 26 27 27 28 28 28 29 29 30 31 32 33 33 33 33 33 32
3 3 4 2 3 1 3 4 7 9 5 3 2 2 2 1 1 1 2 2 3 4 5 4 9 15 7 6 7 8 8 10 11 9 10 12 12 11 10 10 10 10 9 7 7 7 6 9 13 13 11 9 7 7 8 9 10 11 12 13 14 17 19 21 22 23 24 25 26 27 28 29 30 29 29 29 29 30 31 32 31 31 32 33 33 33
3 3 3 2 1 4 6 4 4 7 6 6 6 7 7 5 3 2 5 3 3 4 5 2 7 18 9 5 5 6 6 9 9 9 9 11 12 11 10 11 12 10 9 8 8 7 6 8 11 11 10 8 7 8 8 9 10 11 12 13 15 18 19 21 22 23 25 26 26 27 28 29 30 30 30 31 31 31 31 31 31 31 32 32 33 32
3 3 3 3 4 6 6 3 1 2 1 2 4 5 6 6 6 6 8 4 2 4 4 3 6 17 7 4 3 5 5 6 5 8 9 10 11 11 11 11 10 9 9 8 8 7 6 9 10 10 9 8 8 8 9 10 11 12 13 15 16 18 19 20 22 23 24 25 26 27 29 30 30 30 31 31 31 31 31 32 32 31 31 31 32 32
2 2 3 4 3 2 4 4 1 2 3 2 5 4 6 7 8 7 6 2 2 5 3 3 10 16 4 3 2 3 3 4 4 8 10 8 7 8 11 11 9 9 8 8 7 6 6 8 9 8 9 9 9 9 9 10 11 12 14 15 16 18 19 20 22 23 24 25 27 28 29 30 31 31 31 31 31 32 33 33 33 31 29 30 31 31
3 3 3 4 5 4 4 3 3 2 1 4 5 5 8 11 7 2 0 1 3 10 9 6 14 17 5 2 2 4 4 5 5 7 8 7 7 8 10 10 9 8 8 8 8 6 6 7 7 8 10 11 10 9 9 10 11 13 15 15 16 18 19 21 22 22 23 25 27 29 29 30 31 31 31 32 33 33 34 34 32 30 28 29 30 29
6 4 6 7 8 8 7 6 4 3 3 3 4 6 10 13 12 6 2 4 10 13 10 10 16 19 12 3 0 5 7 6 6 7 6 7 7 8 9 9 9 10 10 10 9 8 7 6 6 9 11 11 9 8 9 10 12 14 15 16 16 16 19 20 21 22 23 24 26 28 29 30 30 31 33 33 34 34 34 33 31 30 29 29 30 28
4 3 8 12 13 13 14 12 6 6 5 5 7 11 14 15 16 11 6 9 12 7 7 17 20 20 25 17 7 11 13 9 9 9 8 8 8 8 9 10 10 9 10 9 8 8 7 7 7 8 10 10 8 8 9 11 13 15 16 17 16 16 18 19 20 22 23 24 25 27 28 29 30 32 33 33 34 34 34 32 30 30 30 29 28 28
3 5 13 15 17 18 18 17 8 8 8 11 11 13 15 14 14 13 14 18 14 4 9 24 21 18 30 27 16 18 18 10 10 11 10 10 9 9 9 10 10 10 9 9 9 9 8 8 7 7 8 9 8 9 10 11 14 15 15 16 16 16 16 17 19 22 23 24 25 26 28 30 31 32 32 33 33 33 31 29 30 31 30 28 27 28
4 9 14 14 17 19 18 18 12 8 9 10 11 14 14 13 16 20 24 24 16 10 19 27 22 22 29 25 19 21 16 10 13 12 10 9 8 9 9 10 11 12 12 11 11 9 9 8 6 5 7 8 7 9 11 12 14 14 14 15 16 15 15 17 19 22 24 24 25 27 29 30 32 32 32 33 32 30 30 30 31 31 30 28 27 28
4 9 13 11 13 17 17 17 13 10 9 9 16 19 13 14 20 24 24 22 19 21 26 27 26 29 29 22 21 22 14 9 10 7 7 8 9 11 12 13 14 15 14 13 11 9 8 7 6 5 6 6 7 9 12 13 13 13 14 15 14 14 15 18 20 22 23 24 25 28 29 30 31 32 32 32 31 32 33 33 33 31 30 29 30 30
5 7 7 4 6 14 16 12 8 7 7 10 21 24 15 14 19 20 20 18 17 21 27 26 25 26 26 21 21 20 12 8 8 7 8 9 11 13 14 14 16 16 14 12 10 9 8 6 6 5 5 6 9 11 12 13 13 13 15 15 13 14 17 19 20 21 22 25 27 28 29 30 30 31 32 32 32 33 33 33 33 32 31 32 32 32
5 4 1 3 5 13 9 2 2 1 3 8 23 28 21 16 17 19 18 16 17 20 23 22 19 19 22 21 17 14 9 9 12 12 10 9 12 15 15 16 17 16 14 12 10 9 8 7 6 6 6 8 10 11 12 12 13 14 15 13 13 16 19 19 20 21 23 25 27 28 28 29 30 31 32 32 32 32 33 33 33 32 33 34 33 34
6 5 3 4 8 10 1 5 4 6 4 11 21 23 21 18 19 21 19 18 22 20 15 16 18 19 21 18 15 13 10 11 13 12 11 11 12 15 16 17 17 15 14 12 10 9 9 7 7 7 9 10 10 11 11 11 13 14 12 12 15 17 18 19 20 22 24 25 26 27 27 28 30 31 31 30 30 32 33 33 33 33 33 34 34 34
6 8 6 5 6 5 1 5 5 2 8 14 9 7 12 17 21 23 22 24 25 19 15 19 21 21 21 17 15 17 14 11 11 11 11 11 11 13 15 16 14 13 12 10 10 10 8 7 7 9 10 10 10 10 9 10 12 11 10 12 15 16 17 19 20 22 24 25 26 27 28 29 29 29 29 30 31 32 33 32 33 33 33 34 35 34
9 8 5 4 3 1 2 4 1 9 14 9 3 3 10 13 15 18 20 26 26 18 17 23 25 25 25 20 17 17 15 11 9 10 11 12 12 13 15 14 13 12 12 11 10 9 7 8 9 10 11 11 10 9 8 8 9 9 11 13 15 16 16 18 20 21 23 25 26 28 29 28 27 27 29 31 32 33 33 32 32 33 34 34 34 31
10 8 4 3 3 2 2 5 10 12 9 12 11 5 4 2 3 5 12 23 22 16 17 22 25 25 25 22 18 13 8 5 4 6 9 12 12 12 14 15 14 15 14 12 11 10 10 12 13 13 13 12 9 7 6 6 7 10 12 13 14 15 17 18 20 22 23 25 27 28 26 25 27 29 31 32 33 33 33 32 33 34 34 33 31 28
9 8 5 5 5 6 8 10 11 9 12 21 21 8 7 6 7 7 10 21 19 14 17 20 22 22 23 20 13 4 4 3 5 6 8 10 10 10 11 12 13 14 12 11 11 12 14 15 15 14 14 11 7 5 4 5 7 10 12 13 14 16 18 19 20 22 23 25 27 26 24 23 27 31 32 32 33 33 33 33 34 33 31 31 31 30
9 8 8 9 8 8 9 10 9 8 12 21 14 6 9 11 10 9 6 15 19 13 15 16 18 21 21 14 4 5 6 1 7 9 8 9 9 9 7 8 10 10 10 12 14 16 17 17 16 15 12 9 6 4 3 5 8 10 11 12 14 16 18 18 20 22 24 25 26 26 25 26 28 31 32 32 32 34 34 34 33 31 30 31 32 32
7 4 6 8 8 8 8 9 11 10 14 18 8 6 7 9 11 8 2 10 20 15 12 15 18 19 15 8 8 8 5 3 10 10 6 10 11 10 10 9 9 9 13 18 21 21 20 18 16 13 10 8 6 4 2 5 8 9 10 11 13 15 17 18 21 23 23 25 26 25 26 28 29 30 31 32 33 33 34 34 32 31 32 32 32 32
7 5 5 7 10 11 11 11 10 7 12 14 5 8 7 10 13 7 3 11 14 7 10 15 17 15 9 8 10 8 8 9 9 5 6 11 10 9 11 11 9 9 14 20 22 21 21 19 16 13 10 8 6 2 3 7 7 7 8 11 12 14 16 19 22 23 23 24 26 27 28 29 29 30 31 32 33 33 32 32 32 32 33 32 31 31
5 6 6 9 13 15 15 13 8 7 12 10 9 13 10 9 9 5 12 11 4 3 7 11 12 10 9 11 10 9 9 7 3 4 9 12 11 8 7 8 11 15 19 23 22 21 20 17 14 13 10 7 5 4 5 6 6 7 8 11 11 14 18 20 22 24 24 25 27 28 28 28 28 30 31 30 31 32 31 31 31 32 32 31 32 31
5 4 5 9 11 11 12 12 7 9 11 7 14 14 12 8 4 11 9 3 4 6 6 8 10 9 10 12 12 9 5 3 5 8 11 12 12 9 7 8 12 15 18 20 20 21 19 15 13 12 9 6 6 6 5 5 6 7 9 11 12 16 20 21 23 24 25 26 27 27 28 29 28 29 30 30 30 31 32 31 31 30 30 30 31 31
9 6 5 8 7 4 6 8 7 9 7 16 19 9 8 10 14 11 3 2 4 8 8 7 9 9 10 12 11 6 5 5 7 10 11 11 9 8 8 9 9 10 14 17 17 19 19 15 13 12 10 7 7 6 5 6 7 8 9 11 13 17 20 21 23 24 25 26 27 27 28 28 29 29 29 29 30 30 31 31 30 30 30 29 29 28
8 7 6 7 7 5 6 10 11 10 9 20 19 12 15 20 16 7 6 6 4 6 7 7 8 9 11 11 9 8 7 7 8 9 10 10 8 8 8 8 8 9 12 16 17 18 17 16 14 12 10 9 8 6 5 6 7 8 10 12 15 18 20 21 23 25 25 25 25 26 27 27 28 28 28 29 31 30 30 30 29 29 29 27 27 26
13 15 10 7 8 10 10 12 11 6 9 16 17 14 16 22 16 5 6 7 5 5 7 7 8 10 10 9 10 9 8 8 10 10 9 8 8 9 9 8 10 12 14 16 17 17 17 17 16 14 12 10 7 5 5 7 8 10 11 13 15 18 19 21 24 24 24 25 25 25 26 26 27 27 27 28 30 30 30 30 29 28 28 27 26 24
11 10 5 3 6 8 11 14 10 4 7 14 18 11 7 11 11 6 5 6 6 7 7 8 9 10 10 10 10 10 9 10 12 12 9 8 8 9 8 7 10 14 16 16 16 17 17 17 17 16 13 9 6 5 5 6 8 10 11 12 14 16 18 20 22 23 23 24 24 24 25 25 26 27 28 28 28 28 29 29 28 27 26 25 24 24
5 5 5 5 6 6 10 19 18 14 15 16 14 10 7 7 8 8 8 8 6 8 9 9 9 11 12 12 13 12 11 12 14 12 9 7 8 10 10 8 9 12 14 16 18 19 19 17 15 14 13 10 5 4 5 6 8 9 9 11 13 15 17 19 21 22 22 23 24 24 23 24 25 26 28 29 28 27 27 28 28 26 24 25 26 27
6 7 7 9 11 10 15 22 15 11 16 17 12 11 13 12 11 10 10 9 7 9 10 9 9 11 12 12 13 13 12 13 14 14 11 8 7 8 9 8 9 11 13 17 20 20 18 16 15 14 13 10 5 3 4 6 7 7 8 10 12 13 16 18 19 21 21 21 22 23 22 23 24 25 27 29 29 27 26 27 28 26 25 26 28 30
6 8 9 11 13 12 16 22 11 2 10 16 16 17 19 18 16 13 10 8 8 9 10 10 10 11 13 14 14 13 14 14 14 15 15 11 8 8 9 8 10 12 14 17 20 19 17 17 16 15 13 9 6 3 4 5 6 6 7 9 10 12 15 18 19 20 20 20 21 22 22 23 23 24 24 26 28 28 26 25 25 25 26 28 29 30
7 10 10 9 9 11 16 24 20 11 12 18 19 22 23 19 15 13 11 10 12 13 13 12 10 9 12 13 14 14 15 14 13 15 16 13 9 9 10 10 11 12 15 18 19 17 17 18 17 16 13 9 6 4 5 5 5 5 6 7 9 11 13 16 18 19 18 19 20 21 21 22 23 23 24 24 24 27 28 26 23 21 23 27 30 30
15 19 15 12 14 19 22 27 24 16 16 19 17 17 19 15 13 15 15 16 17 15 15 15 13 11 10 11 12 15 16 15 15 15 14 12 9 10 14 15 14 13 16 21 21 18 17 17 16 16 13 9 7 6 5 5 4 4 5 6 8 9 11 13 16 17 17 18 19 19 19 20 21 22 23 23 23 24 26 28 27 24 23 25 28 29
Wind_Direction
76 57 315 254 245 245 234 194 172 170 160 162 183 220 247 250 274 273 252 266 168 211 263 234 234 258 266 269 254 207 199 219 230 233 227 216 213 210 208 209 204 206 210 200 191 186 187 182 173 170 159 157 162 154 106 39 15 15 15 10 7 3 359 357 360 3 6 9 6 2 0 355 352 350 349 351 351 351 348 344 341 339 338 336 333 330
62 67 259 238 221 220 215 173 130 114 137 150 197 240 273 232 256 278 280 310 105 176 267 242 234 256 259 268 263 184 187 222 219 222 226 216 216 215 208 208 205 206 206 196 192 190 192 186 177 174 165 166 172 168 131 13 1 8 5 358 356 352 351 352 356 360 3 5 1 356 354 349 346 345 346 344 344 344 340 338 337 336 335 333 331 329
18 260 253 241 188 136 90 118 123 125 149 156 175 206 278 249 267 291 304 342 1 167 270 275 261 260 257 265 263 209 198 225 218 217 223 214 215 217 208 204 199 200 199 191 193 196 196 187 177 174 171 174 180 183 215 335 348 358 353 344 343 342 344 347 350 355 357 357 355 352 350 348 343 341 340 336 336 336 332 331 330 331 332 332 331 330
296 251 247 204 139 126 82 82 115 102 163 181 179 193 263 271 297 284 303 343 323 234 270 288 278 263 252 259 263 237 211 233 228 225 230 219 220 219 210 204 197 198 196 189 194 199 196 190 183 177 174 181 190 203 244 322 340 344 340 331 332 335 339 342 344 348 350 349 349 348 348 347 343 338 335 332 330 328 326 327 329 331 332 332 331 330
243 245 157 108 120 143 143 98 142 175 279 247 206 203 242 264 242 238 286 339 323 306 314 318 299 269 229 240 258 270 259 258 239 231 238 230 229 222 207 207 203 201 195 187 191 193 196 194 189 182 180 188 199 215 251 318 335 332 329 325 325 329 333 336 339 341 344 345 345 346 347 346 343 338 335 332 328 326 327 330 331 332 332 332 330 328
260 252 133 122 108 131 158 224 202 183 243 295 229 209 225 247 253 266 324 353 345 327 344 7 325 278 191 218 256 284 299 262 228 223 239 231 222 214 209 208 202 204 200 191 185 182 191 193 188 190 191 198 208 223 254 303 322 320 319 320 321 325 329 332 335 337 340 342 343 345 345 342 338 332 328 327 324 323 325 326 327 327 328 329 328 327
261 357 93 136 142 132 168 240 235 172 147 298 243 197 204 222 261 288 343 7 301 264 291 61 320 274 276 186 248 259 259 261 247 235 242 234 220 215 214 207 194 199 198 189 181 175 186 193 194 199 198 202 216 233 251 285 306 309 311 316 321 325 328 330 331 334 336 338 340 342 340 335 328 318 315 316 315 316 319 320 321 323 324 326 326 326
168 91 59 108 122 136 181 242 229 160 137 244 226 133 130 147 240 236 83 7 247 272 278 161 167 273 281 238 248 267 262 269 269 253 247 231 223 222 214 203 195 196 188 177 178 178 189 197 199 201 200 205 225 243 251 274 296 303 307 316 323 326 327 328 328 330 332 334 335 336 334 329 322 314 311 313 314 315 317 319 321 323 323 324 324 323
154 163 184 155 127 175 207 223 192 159 162 242 192 113 102 118 169 141 102 266 288 352 291 205 148 264 277 249 292 358 264 263 267 260 254 233 222 223 211 200 197 193 181 174 177 183 193 198 201 203 202 212 233 246 253 270 292 303 307 314 322 326 327 327 326 326 327 330 331 331 329 323 319 315 312 314 315 316 317 318 319 322 322 321 321 321
146 204 192 154 158 210 217 221 183 167 193 222 128 96 60 66 67 68 65 338 34 328 271 228 156 220 275 232 138 31 246 249 257 258 257 239 224 217 203 199 194 186 180 179 179 183 191 195 199 205 212 225 239 246 254 270 291 303 306 312 320 326 329 327 325 323 323 328 328 327 326 320 316 316 315 316 316 317 318 317 318 319 318 317 318 318
322 323 173 150 184 196 153 106 158 152 160 119 92 55 20 32 46 48 44 61 51 280 270 231 174 188 277 249 159 186 216 219 238 259 266 247 223 205 199 199 191 182 179 178 178 185 193 197 201 212 226 237 244 247 255 274 294 302 306 315 320 325 330 327 324 321 321 326 325 323 322 316 313 315 315 315 315 316 317 316 315 315 314 313 314 315
336 334 232 256 176 129 95 80 41 33 75 91 76 49 6 337 12 19 357 45 60 258 271 241 176 186 244 247 188 230 249 226 226 252 262 248 225 203 199 196 187 181 176 172 177 188 196 206 212 218 231 244 248 253 265 281 296 302 307 319 321 324 330 328 323 320 320 322 321 319 316 312 313 313 313 312 311 313 313 312 311 311 310 310 310 311
308 232 255 314 214 139 107 87 19 357 37 86 90 75 37 334 353 345 310 48 222 246 248 118 134 217 245 247 241 247 256 253 232 231 251 252 227 203 197 190 180 175 175 174 177 187 193 207 213 216 231 248 257 267 278 289 299 303 310 321 322 323 328 327 322 321 321 320 318 317 314 313 314 312 311 310 308 309 308 307 307 306 306 306 306 307
297 292 327 197 273 176 151 157 206 265 146 145 147 128 129 113 340 280 269 269 269 268 231 128 110 270 271 261 237 235 245 258 249 241 257 258 222 203 194 181 174 175 180 178 179 188 193 205 211 216 235 252 263 273 281 290 299 304 314 323 324 323 326 325 324 324 320 318 316 315 314 314 314 312 311 309 307 306 305 303 302 301 300 300 301 302
243 293 223 176 247 189 179 187 164 145 143 174 164 137 149 155 183 238 239 249 288 302 270 157 137 249 272 258 216 234 261 281 285 272 269 258 220 191 174 167 171 181 184 180 184 191 199 205 209 217 236 249 260 270 281 291 299 308 317 325 324 321 324 326 325 321 317 315 314 313 314 314 313 311 309 307 305 304 302 300 298 296 296 295 296 298
201 266 257 222 274 166 184 230 119 118 116 219 137 110 174 184 170 206 241 219 292 318 284 207 206 230 236 229 199 236 300 291 308 305 275 234 189 149 161 176 179 185 185 185 189 195 207 209 210 221 235 246 258 270 282 293 303 312 319 324 321 319 323 324 319 314 312 312 312 313 314 314 314 312 309 307 305 303 301 298 296 294 293 293 294 296
188 273 288 357 337 116 176 272 124 138 177 165 132 177 217 184 134 149 284 334 70 299 274 261 268 275 307 286 204 144 299 274 287 291 230 204 174 168 188 188 185 189 186 187 191 195 206 208 213 224 234 245 258 272 285 296 306 313 319 320 319 319 321 317 311 309 311 313 313 314 316 316 315 313 310 308 306 304 301 297 294 293 293 293 294 295
190 268 276 116 199 271 258 243 351 16 124 127 178 215 197 135 97 109 279 342 44 261 270 290 280 283 298 296 257 42 275 259 256 241 206 211 202 201 206 193 190 192 186 192 198 202 207 208 217 226 236 246 259 275 286 298 308 313 317 316 315 315 313 309 309 312 315 316 316 316 316 316 315 313 311 309 307 305 301 297 295 294 292 293 294 295
152 251 284 105 209 287 2 103 303 348 76 123 193 215 127 148 153 102 161 244 207 244 271 285 289 281 270 253 244 234 231 240 243 210 188 212 211 211 207 193 192 191 189 197 199 206 212 212 222 228 235 246 258 271 283 300 308 310 315 315 311 307 304 307 312 316 318 318 316 315 316 316 315 314 312 310 308 305 301 299 297 295 293 293 294 294
120 214 274 344 250 293 20 138 196 224 54 75 153 343 49 170 173 160 173 187 177 225 270 295 306 287 260 190 196 218 212 223 228 203 200 214 213 210 201 190 193 193 194 197 194 205 213 217 225 230 236 246 254 267 284 298 302 308 313 310 306 304 308 315 319 320 320 319 318 317 317 318 317 316 313 310 309 306 302 301 298 296 295 294 294 294
104 211 247 320 336 249 196 205 193 187 175 156 185 208 224 180 141 219 219 163 166 222 253 285 290 278 260 150 189 210 202 217 219 203 207 217 215 209 198 192 195 195 193 191 194 203 210 221 228 231 238 245 252 268 284 294 299 306 305 302 307 313 319 323 323 322 320 319 320 319 319 320 318 316 314 311 309 306 304 302 299 297 297 295 293 292
165 194 195 171 231 212 219 238 208 193 182 179 194 197 197 185 153 238 253 215 174 225 225 165 271 271 262 139 175 188 191 221 217 198 206 219 215 205 196 197 195 192 192 189 195 203 205 220 227 230 235 237 249 268 281 292 296 298 301 310 319 321 321 321 320 319 319 319 319 318 319 318 317 316 315 313 312 309 306 304 301 299 298 295 292 291
142 126 168 204 219 219 243 277 235 204 174 200 217 194 185 181 169 203 239 227 174 235 229 113 264 268 262 121 169 191 206 234 207 193 210 220 215 200 193 197 193 191 192 187 194 202 203 215 221 225 229 233 250 267 278 286 291 300 313 323 323 319 318 318 317 318 318 318 318 318 318 317 317 317 316 315 312 309 307 306 304 301 296 292 292 291
112 123 198 259 293 325 318 320 360 49 64 241 241 189 179 202 198 205 224 182 150 226 198 135 255 262 273 88 226 239 257 261 197 202 220 220 209 196 192 194 192 191 190 190 198 203 205 214 216 216 222 230 246 261 273 285 300 314 320 320 317 314 314 316 317 317 317 317 317 318 318 318 319 319 317 315 312 309 308 307 305 301 295 292 291 289
189 174 174 247 291 316 324 327 332 329 218 228 236 189 200 220 210 185 64 114 245 239 209 204 253 261 265 83 290 290 278 259 226 217 226 220 204 195 192 192 190 188 187 193 202 203 205 210 209 211 217 227 243 260 278 296 309 313 312 310 310 309 312 316 317 316 316 317 318 319 320 321 321 319 317 314 311 309 309 307 304 300 296 293 291 288
185 180 173 204 232 241 245 233 214 220 209 219 231 204 210 215 202 198 216 217 243 240 214 219 250 264 267 235 176 275 257 247 249 238 230 227 210 195 192 192 189 188 191 195 200 203 206 206 207 209 214 225 244 265 285 298 302 302 302 303 304 307 311 315 315 314 316 318 319 319 320 321 320 319 316 314 312 310 309 306 302 299 297 294 291 289
152 192 202 207 215 223 238 239 191 137 158 200 210 207 212 212 203 205 222 229 237 238 226 236 244 265 272 263 251 263 256 243 244 240 228 223 209 196 196 194 191 191 193 195 199 202 204 206 208 208 213 227 248 268 281 288 291 294 296 298 304 310 311 312 313 315 318 320 320 319 319 320 319 317 315 313 311 310 308 304 301 300 298 294 291 290
117 225 222 217 223 228 239 245 209 156 197 218 212 211 214 209 195 196 218 229 231 233 253 251 247 257 267 267 264 265 263 253 239 232 224 220 206 196 195 188 187 194 196 201 203 202 204 209 209 205 212 227 246 266 275 280 285 288 290 295 305 309 307 310 315 319 322 323 321 320 320 320 318 315 313 312 310 309 306 304 303 302 299 295 292 291
147 235 231 221 233 238 243 248 233 207 225 233 235 231 215 198 191 202 221 228 223 224 247 256 259 257 261 267 268 264 264 257 246 232 214 211 193 183 187 184 189 198 200 204 205 202 206 209 206 199 210 227 247 264 272 277 281 285 288 293 299 301 305 316 322 324 325 323 321 321 321 319 317 315 313 311 310 308 306 305 305 304 301 297 294 293
163 237 239 224 239 246 244 247 245 241 247 251 256 248 217 193 204 212 225 231 226 234 247 256 263 262 263 266 267 269 269 257 250 224 186 190 182 183 191 191 197 202 202 203 202 202 206 206 199 195 205 225 245 257 267 274 279 285 288 290 292 300 317 328 329 327 325 322 321 321 320 318 316 314 313 311 310 309 308 307 307 305 302 299 297 295
202 235 242 205 241 254 249 244 241 246 250 255 262 258 232 210 222 227 231 234 233 240 248 254 259 263 266 266 266 273 273 249 236 214 197 195 187 191 196 196 202 205 202 201 199 197 201 198 191 194 205 222 238 251 262 273 283 285 282 283 296 318 332 335 331 327 324 322 322 321 320 318 315 313 312 311 311 311 309 309 308 305 303 302 300 298
197 228 282 120 230 255 254 211 161 54 13 274 264 260 243 224 231 237 233 228 227 236 246 253 254 257 263 267 268 268 253 228 228 222 209 201 195 195 198 201 205 204 199 196 194 192 195 195 192 195 207 219 233 247 259 273 282 277 275 290 320 335 338 336 331 328 325 324 323 322 319 317 315 314 314 314 313 312 312 311 309 307 305 304 303 302
172 197 205 166 227 255 265 98 100 61 12 268 258 253 240 226 230 241 246 238 230 228 235 247 247 248 256 264 269 265 243 225 228 221 205 204 203 200 202 205 204 201 195 190 186 188 192 193 190 193 205 217 230 244 258 269 272 271 283 316 338 341 339 337 333 329 327 325 323 321 319 319 318 316 316 316 315 314 313 312 310 309 308 306 306 304
182 200 203 181 217 251 141 100 83 93 243 253 256 228 214 211 217 230 240 243 237 225 224 241 251 256 258 257 257 258 251 235 226 218 206 200 199 202 208 209 202 194 190 183 182 190 189 178 178 189 203 217 228 243 258 261 264 279 312 340 345 343 340 336 334 331 328 325 324 322 321 322 321 319 317 317 317 316 315 313 312 311 311 309 308 305
190 198 198 189 197 206 113 98 166 225 234 259 317 177 196 202 209 221 236 245 243 230 228 241 249 254 256 254 251 255 259 251 228 217 213 204 197 199 202 203 196 186 182 181 183 186 177 165 171 183 198 213 224 236 251 259 273 307 341 352 348 343 340 337 334 332 329 326 325 325 324 324 323 321 319 319 319 317 316 315 314 314 313 312 309 305
183 183 183 181 162 162 162 187 226 247 281 302 285 223 159 165 197 212 254 258 249 226 225 240 245 249 254 255 253 256 267 274 256 229 219 213 205 200 196 194 190 184 182 182 181 178 170 168 173 182 194 208 217 222 240 272 306 340 354 355 349 343 341 340 336 334 331 328 327 326 325 324 323 322 321 321 320 318 317 317 317 316 316 315 312 312
177 171 193 208 189 214 228 223 241 282 304 285 268 216 164 200 186 172 247 267 259 220 212 234 245 248 252 254 253 249 71 31 303 262 228 215 209 202 197 189 181 178 175 169 164 162 161 165 173 183 192 196 198 210 250 300 340 359 358 352 348 345 344 343 338 334 331 328 327 326 325 324 323 322 322 321 320 318 318 318 318 318 320 319 318 318
196 184 202 214 205 217 232 240 252 258 256 261 259 169 172 198 177 158 215 271 273 237 201 219 240 246 251 250 213 115 93 51 275 260 223 196 189 185 181 172 166 164 154 144 142 143 150 162 173 180 182 174 172 208 278 341 6 7 358 350 348 347 346 343 338 334 331 328 326 325 325 325 324 322 321 320 320 318 318 319 319 319 321 321 318 317
218 222 213 218 221 218 220 235 240 233 245 255 244 136 150 152 132 116 124 268 272 255 192 198 227 238 241 216 150 132 125 205 255 257 200 170 175 172 162 154 146 140 138 142 144 145 153 164 169 168 166 162 174 209 330 17 17 11 360 351 349 348 345 341 336 333 330 326 324 324 325 326 325 323 322 320 319 318 319 320 320 320 321 320 319 318
210 225 210 215 228 223 219 234 238 236 256 256 197 136 153 138 119 109 231 255 266 254 175 190 218 229 212 161 149 161 180 207 242 252 161 157 164 164 159 153 143 133 134 140 145 151 157 161 161 159 159 166 180 175 43 28 21 17 3 353 352 349 343 338 335 332 327 323 323 325 326 328 328 326 324 321 320 320 320 321 322 322 323 322 321 321
203 214 206 215 227 224 224 236 245 251 254 239 149 142 152 118 101 182 231 237 232 156 175 191 206 209 173 151 166 193 202 205 195 123 137 147 149 148 141 129 128 133 137 140 146 152 154 155 155 154 156 164 155 95 51 29 24 20 5 359 357 348 343 339 336 332 327 324 325 327 330 332 331 328 326 324 323 322 322 323 324 324 324 324 324 323
188 196 204 218 225 225 231 238 248 262 250 173 140 156 156 134 202 227 223 192 136 163 190 195 196 189 167 172 191 197 182 143 121 132 147 153 152 146 128 118 123 130 136 141 148 153 150 148 149 150 151 148 117 83 48 25 27 22 10 4 357 347 344 341 335 330 328 327 329 331 333 334 334 332 330 329 328 326 324 326 328 326 326 327 326 323
181 177 196 209 208 214 238 233 236 258 221 138 134 160 180 197 227 227 177 100 164 174 180 191 197 187 175 187 197 177 139 133 140 150 155 157 152 132 125 131 127 127 137 144 152 156 151 146 150 151 144 126 104 82 44 27 27 24 16 5 354 348 346 341 335 331 331 332 334 336 337 337 337 336 334 333 332 329 326 328 330 330 330 329 327 324
171 180 201 203 192 182 207 215 221 234 184 147 152 181 203 213 224 206 174 206 200 168 177 190 198 194 186 186 181 164 157 156 157 159 156 152 144 128 128 133 122 124 141 148 154 159 154 149 150 145 131 116 102 80 45 30 27 26 20 4 353 350 346 340 337 335 335 337 338 338 339 339 339 339 338 338 336 332 329 330 331 331 332 331 328 325
195 199 206 205 200 198 211 223 223 205 164 174 193 202 203 215 222 175 164 204 196 176 185 184 193 198 187 174 167 167 174 170 166 166 156 144 144 141 135 134 134 139 144 147 153 160 157 151 146 134 121 111 100 77 49 33 28 26 17 1 354 351 345 340 339 338 338 339 339 339 340 341 342 342 341 341 340 336 332 331 332 333 333 332 330 325
216 207 197 204 211 218 244 252 240 192 175 203 218 221 199 214 219 181 176 211 194 178 185 185 188 187 172 165 168 174 182 173 164 165 157 137 136 137 127 123 135 142 145 149 156 158 153 145 136 126 118 112 99 72 52 41 34 27 13 360 355 350 343 341 341 339 340 341 341 342 343 343 344 344 342 342 342 339 334 333 332 331 332 334 332 325
241 208 189 213 205 193 242 248 235 220 221 216 216 228 237 232 219 198 203 218 195 177 190 193 181 172 169 171 175 178 179 168 159 162 159 139 137 143 140 135 140 147 154 158 160 158 151 140 130 124 123 122 110 72 57 50 38 28 12 1 356 347 342 344 343 340 341 343 342 343 345 345 345 343 342 343 342 340 337 336 334 332 334 335 330 322
204 183 181 221 221 209 238 249 239 226 236 229 211 219 232 228 218 208 207 209 190 179 189 187 169 166 172 179 180 175 169 165 164 163 159 153 148 146 144 143 145 150 157 161 162 160 152 140 132 130 131 129 121 88 72 59 40 26 13 2 355 346 343 345 344 341 342 344 343 344 347 347 346 344 342 342 341 340 339 338 336 336 337 337 331 325
147 168 177 204 220 227 250 255 249 250 261 244 217 214 224 221 212 208 204 193 183 183 185 184 179 176 176 179 178 167 162 170 172 163 159 159 152 143 146 148 147 148 154 161 165 162 150 140 137 135 132 131 132 116 89 70 45 27 14 2 353 347 345 344 342 342 345 346 345 346 348 348 347 345 343 340 340 340 340 340 338 335 336 341 340 337
153 203 194 183 208 224 238 241 233 219 241 241 220 213 221 219 203 197 194 189 193 192 183 179 184 184 181 180 174 164 164 172 170 161 160 163 157 149 150 147 143 147 154 158 160 156 145 141 141 138 134 135 141 130 102 83 60 33 16 3 353 349 347 343 340 342 345 347 347 347 347 346 346 347 344 340 339 339 340 343 346 342 340 344 347 348
195 211 197 184 213 224 226 233 232 218 226 241 230 210 211 208 192 190 196 199 201 195 180 175 176 178 184 186 176 168 166 165 162 160 160 161 155 147 150 154 153 153 157 158 155 148 141 140 142 141 140 144 151 141 117 96 76 42 17 2 355 351 347 344 341 340 342 346 348 346 346 346 346 346 345 342 341 340 339 342 346 351 352 352 352 355